UP1225 UMKK-ULMM

Flight info

Callsign UP1225
Flight time 2h 32m
Altitude 38000
Route PELUG DCT OTVOV DCT KEDUX/N0469F390 DCT PIVAX DCT NEKET DCT PIRUX DCT PISIM DCT PIDIN DCT ARANS/K0880F390 DCT PISIS DCT AKARU DCT ROGOP T457 LULOR/K0882F400 T693 ASGOR
Aircraft B736/M-SDE2E3FGHIRWXY/LB1

Departure

Time 2026-04-26 16:39
Airport Khrabrovo Airport (UMKK)

Arrival

Time 2026-04-26 19:11
Airport Emperor Nicholas II Murmansk Airport (ULMM)
Time Latitude Longitude Altitude Speed Heading
2026-04-26 16:08 54.88448 20.58348 25 ft 0 kts 155°
2026-04-26 16:26 54.88444 20.58352 25 ft 2 kts 155°
2026-04-26 16:27 54.88423 20.58379 27 ft 6 kts 122°
2026-04-26 16:27 54.88433 20.58462 27 ft 9 kts 68°
2026-04-26 16:27 54.88459 20.58562 25 ft 9 kts 65°
2026-04-26 16:27 54.88485 20.58658 28 ft 9 kts 65°
2026-04-26 16:28 54.88510 20.58752 26 ft 8 kts 65°
2026-04-26 16:28 54.88546 20.58818 29 ft 0 kts
2026-04-26 16:28 54.88603 20.58780 29 ft 10 kts 335°
2026-04-26 16:29 54.88654 20.58748 27 ft 4 kts
2026-04-26 16:29 54.88677 20.58781 25 ft 5 kts 57°
2026-04-26 16:29 54.88692 20.58831 27 ft 5 kts 62°
2026-04-26 16:29 54.88704 20.58882 25 ft 5 kts 70°
2026-04-26 16:30 54.88719 20.58930 26 ft 5 kts 52°
2026-04-26 16:30 54.88738 20.58961 25 ft 0 kts 35°
2026-04-26 16:31 54.88741 20.58964 25 ft 4 kts 33°
2026-04-26 16:31 54.88790 20.59010 29 ft 1 kts 27°
2026-04-26 16:32 54.88792 20.59013 25 ft 0 kts 27°
2026-04-26 16:32 54.88799 20.59018 25 ft 1 kts 27°
2026-04-26 16:33 54.88799 20.59019 27 ft 0 kts 27°
2026-04-26 16:35 54.88837 20.59052 28 ft 14 kts 26°
2026-04-26 16:35 54.88964 20.59187 26 ft 28 kts 45°
2026-04-26 16:35 54.89084 20.59545 24 ft 39 kts 65°
2026-04-26 16:36 54.89195 20.59971 21 ft 38 kts 66°
2026-04-26 16:36 54.89299 20.60366 22 ft 34 kts 66°
2026-04-26 16:36 54.89390 20.60724 21 ft 31 kts 65°
2026-04-26 16:36 54.89476 20.61054 19 ft 29 kts 65°
2026-04-26 16:37 54.89571 20.61423 22 ft 37 kts 65°
2026-04-26 16:37 54.89672 20.61816 24 ft 34 kts 65°
2026-04-26 16:37 54.89737 20.62117 23 ft 19 kts 99°
2026-04-26 16:37 54.89762 20.62169 23 ft 10 kts 263°
2026-04-26 16:38 54.89732 20.62052 24 ft 15 kts 246°
2026-04-26 16:38 54.89586 20.61481 21 ft 95 kts 246°
2026-04-26 16:38 54.89216 20.60036 51 ft 161 kts 248°
2026-04-26 16:38 54.88725 20.58045 536 ft 193 kts 250°
2026-04-26 16:39 54.88260 20.55805 1444 ft 192 kts 262°
2026-04-26 16:39 54.88523 20.53672 2506 ft 185 kts 308°
2026-04-26 16:39 54.89639 20.52419 3014 ft 207 kts 340°
2026-04-26 16:39 54.91032 20.51602 3621 ft 218 kts 340°
2026-04-26 16:40 54.92473 20.50696 4421 ft 222 kts 338°
2026-04-26 16:40 54.93938 20.49696 5312 ft 227 kts 337°
2026-04-26 16:40 54.95434 20.48601 6020 ft 242 kts 336°
2026-04-26 16:40 54.96987 20.47406 7028 ft 246 kts 335°
2026-04-26 16:41 54.98556 20.46159 8002 ft 251 kts 335°
2026-04-26 16:41 55.00152 20.44858 8948 ft 256 kts 335°
2026-04-26 16:41 55.01767 20.43514 9944 ft 258 kts 334°
2026-04-26 16:41 55.03395 20.42141 10803 ft 266 kts 334°
2026-04-26 16:42 55.05148 20.40655 11081 ft 295 kts 334°
2026-04-26 16:42 55.07045 20.39038 11647 ft 309 kts 334°
2026-04-26 16:42 55.08989 20.37373 12539 ft 312 kts 334°
2026-04-26 16:42 55.10945 20.35693 13419 ft 315 kts 334°
2026-04-26 16:43 55.12919 20.33995 14284 ft 318 kts 334°
2026-04-26 16:43 55.14945 20.32423 15097 ft 321 kts 343°
2026-04-26 16:43 55.17164 20.31873 15914 ft 324 kts 355°
2026-04-26 16:43 55.19428 20.31677 16716 ft 327 kts 355°
2026-04-26 16:44 55.21716 20.31500 17474 ft 330 kts 355°
2026-04-26 16:44 55.23996 20.31323 18233 ft 333 kts 355°
2026-04-26 16:44 55.26320 20.31131 18948 ft 336 kts 355°
2026-04-26 16:44 55.28676 20.30926 19623 ft 341 kts 355°
2026-04-26 16:45 55.31059 20.30714 20303 ft 345 kts 354°
2026-04-26 16:45 55.33469 20.30494 20948 ft 349 kts 354°
2026-04-26 16:45 55.35903 20.30268 21600 ft 352 kts 354°
2026-04-26 16:45 55.38364 20.30040 22213 ft 356 kts 354°
2026-04-26 16:46 55.40853 20.29809 22825 ft 360 kts 354°
2026-04-26 16:46 55.43369 20.29574 23428 ft 364 kts 354°
2026-04-26 16:46 55.45889 20.29085 23989 ft 365 kts 346°
2026-04-26 16:46 55.48350 20.27911 24552 ft 367 kts 340°
2026-04-26 16:47 55.50716 20.26152 25096 ft 370 kts 332°
2026-04-26 16:47 55.53005 20.23997 25653 ft 374 kts 331°
2026-04-26 16:47 55.55294 20.21783 26191 ft 377 kts 331°
2026-04-26 16:47 55.57603 20.19537 26704 ft 380 kts 331°
2026-04-26 16:48 55.59932 20.17274 27179 ft 383 kts 331°
2026-04-26 16:48 55.62250 20.15029 27637 ft 386 kts 331°
2026-04-26 16:48 55.64618 20.12742 28113 ft 389 kts 332°
2026-04-26 16:48 55.67004 20.10439 28574 ft 392 kts 332°
2026-04-26 16:49 55.69408 20.08119 29008 ft 395 kts 332°
2026-04-26 16:49 55.71827 20.05783 29419 ft 397 kts 332°
2026-04-26 16:49 55.74262 20.03431 29806 ft 401 kts 332°
2026-04-26 16:49 55.76722 20.01047 30193 ft 403 kts 332°
2026-04-26 16:50 55.79194 19.98653 30567 ft 405 kts 332°
2026-04-26 16:50 55.81679 19.96242 30887 ft 409 kts 332°
2026-04-26 16:50 55.84182 19.93812 31202 ft 412 kts 331°
2026-04-26 16:50 55.86701 19.91360 31550 ft 413 kts 331°
2026-04-26 16:51 55.89220 19.88904 32009 ft 411 kts 331°
2026-04-26 16:51 55.91723 19.86458 32452 ft 410 kts 331°
2026-04-26 16:51 55.94227 19.84010 32821 ft 410 kts 331°
2026-04-26 16:51 55.96729 19.81560 33177 ft 410 kts 331°
2026-04-26 16:52 55.99230 19.79106 33543 ft 410 kts 331°
2026-04-26 16:52 56.00887 19.77479 33782 ft 409 kts 331°
2026-04-26 16:52 56.04229 19.74194 34200 ft 410 kts 331°
2026-04-26 16:52 56.06729 19.71731 34492 ft 411 kts 331°
2026-04-26 16:53 56.09207 19.69286 34724 ft 413 kts 331°
2026-04-26 16:53 56.11727 19.66796 34973 ft 414 kts 331°
2026-04-26 16:53 56.14250 19.64300 35253 ft 414 kts 331°
2026-04-26 16:53 56.16779 19.61795 35489 ft 415 kts 331°
2026-04-26 16:54 56.19443 19.59778 35682 ft 418 kts 344°
2026-04-26 16:54 56.22320 19.58898 35939 ft 421 kts 353°
2026-04-26 16:54 56.25255 19.58917 36175 ft 425 kts
2026-04-26 16:54 56.28171 19.59958 36359 ft 429 kts 10°
2026-04-26 16:55 56.31082 19.61234 36541 ft 431 kts 11°
2026-04-26 16:55 56.33995 19.62564 36789 ft 430 kts 11°
2026-04-26 16:55 56.36877 19.63882 37255 ft 424 kts 11°
2026-04-26 16:55 56.39726 19.65169 37594 ft 422 kts 11°
2026-04-26 16:56 56.45481 19.67701 37719 ft 429 kts 11°
2026-04-26 16:56 56.48386 19.68964 37947 ft 429 kts 11°
2026-04-26 16:56 56.51283 19.70224 38188 ft 428 kts 11°
2026-04-26 16:57 56.54185 19.71488 38336 ft 430 kts 11°
2026-04-26 16:57 56.57103 19.72757 39836 ft 431 kts
2026-04-26 16:57 56.62843 19.75270 39421 ft 415 kts
2026-04-26 16:58 56.65631 19.76497 39304 ft 410 kts
2026-04-26 16:58 56.67470 19.77304 39257 ft 410 kts
2026-04-26 16:58 56.73919 19.80134 39148 ft 409 kts
2026-04-26 16:59 56.76687 19.81352 39140 ft 409 kts
2026-04-26 17:00 56.87914 19.86313 39128 ft 420 kts
2026-04-26 17:00 56.96460 19.90118 39133 ft 422 kts
2026-04-26 17:01 57.02128 19.92683 39115 ft 422 kts 10°
2026-04-26 17:01 57.07845 19.95480 39127 ft 428 kts 11°
2026-04-26 17:02 57.13618 19.98356 39119 ft 431 kts 11°
2026-04-26 17:02 57.19416 20.01239 39117 ft 432 kts 11°
2026-04-26 17:03 57.25225 20.04122 39110 ft 432 kts 11°
2026-04-26 17:03 57.31031 20.07008 39111 ft 432 kts 11°
2026-04-26 17:04 57.36837 20.09903 39111 ft 431 kts 11°
2026-04-26 17:04 57.42614 20.12786 39126 ft 429 kts 10°
2026-04-26 17:05 57.48363 20.15676 39108 ft 427 kts 10°
2026-04-26 17:05 57.54047 20.18540 39102 ft 425 kts 10°
2026-04-26 17:06 57.59752 20.21422 39102 ft 424 kts 10°
2026-04-26 17:06 57.65438 20.24302 39101 ft 423 kts 10°
2026-04-26 17:07 57.71118 20.27189 39111 ft 423 kts 11°
2026-04-26 17:07 57.76810 20.30091 39102 ft 424 kts 11°
2026-04-26 17:08 57.82507 20.33006 39103 ft 424 kts 11°
2026-04-26 17:08 57.88204 20.35931 39092 ft 424 kts 11°
2026-04-26 17:09 57.91973 20.37872 39091 ft 424 kts 11°
2026-04-26 17:09 57.99597 20.41809 39095 ft 425 kts 11°
2026-04-26 17:10 58.05275 20.44753 39089 ft 426 kts 11°
2026-04-26 17:10 58.10775 20.49080 39097 ft 437 kts 27°
2026-04-26 17:11 58.15412 20.56752 39087 ft 451 kts 42°
2026-04-26 17:11 58.19464 20.65894 39072 ft 454 kts 44°
2026-04-26 17:12 58.25474 20.79739 39066 ft 455 kts 44°
2026-04-26 17:13 58.31561 20.93619 39071 ft 456 kts 44°
2026-04-26 17:14 58.36988 21.05989 39053 ft 456 kts 44°
2026-04-26 17:14 58.43076 21.19946 39048 ft 457 kts 44°
2026-04-26 17:15 58.49169 21.34006 39040 ft 458 kts 45°
2026-04-26 17:16 58.53202 21.43361 39033 ft 458 kts 45°
2026-04-26 17:16 58.57251 21.52791 39025 ft 458 kts 45°
2026-04-26 17:17 58.61299 21.62253 39011 ft 459 kts 45°
2026-04-26 17:17 58.65340 21.71739 39032 ft 460 kts 45°
2026-04-26 17:18 58.69388 21.81279 39012 ft 461 kts 45°
2026-04-26 17:18 58.73436 21.90859 39012 ft 462 kts 45°
2026-04-26 17:19 58.79531 22.05356 39304 ft 463 kts 46°
2026-04-26 17:19 58.81549 22.10179 39464 ft 462 kts 46°
2026-04-26 17:19 58.83545 22.14957 39579 ft 463 kts 46°
2026-04-26 17:20 58.86933 22.23087 39718 ft 464 kts 46°
2026-04-26 17:20 58.89612 22.29537 39899 ft 463 kts 46°
2026-04-26 17:20 58.91627 22.34401 40043 ft 463 kts 46°
2026-04-26 17:21 58.95659 22.44162 40234 ft 463 kts 47°
2026-04-26 17:21 58.97666 22.49036 40348 ft 463 kts 47°
2026-04-26 17:21 58.99673 22.53919 40467 ft 463 kts 47°
2026-04-26 17:22 59.01672 22.58794 40569 ft 463 kts 47°
2026-04-26 17:22 59.03678 22.63695 40664 ft 463 kts 47°
2026-04-26 17:22 59.05678 22.68593 40786 ft 463 kts 47°
2026-04-26 17:22 59.07672 22.73488 40887 ft 461 kts 47°
2026-04-26 17:23 59.11625 22.83217 40932 ft 462 kts 47°
2026-04-26 17:23 59.15611 22.93067 40947 ft 463 kts 47°
2026-04-26 17:24 59.19605 23.02979 40926 ft 465 kts 47°
2026-04-26 17:24 59.23598 23.12935 40929 ft 466 kts 48°
2026-04-26 17:25 59.27587 23.22922 40933 ft 466 kts 48°
2026-04-26 17:25 59.31571 23.32939 40912 ft 466 kts 48°
2026-04-26 17:26 59.35549 23.42983 40900 ft 466 kts 48°
2026-04-26 17:26 59.39486 23.52965 40902 ft 466 kts 48°
2026-04-26 17:27 59.43438 23.63030 40894 ft 465 kts 49°
2026-04-26 17:27 59.47382 23.73118 40895 ft 465 kts 49°
2026-04-26 17:28 59.51187 23.83416 40864 ft 469 kts 57°
2026-04-26 17:28 59.53809 23.95271 40877 ft 473 kts 64°
2026-04-26 17:29 59.55791 24.05323 40878 ft 473 kts 65°
2026-04-26 17:29 59.58603 24.19450 40871 ft 473 kts 64°
2026-04-26 17:30 59.61043 24.31528 40860 ft 474 kts 64°
2026-04-26 17:30 59.63486 24.43611 40876 ft 474 kts 64°
2026-04-26 17:31 59.65921 24.55730 40852 ft 474 kts 65°
2026-04-26 17:31 59.68327 24.67785 40845 ft 474 kts 65°
2026-04-26 17:32 59.70737 24.79937 40845 ft 474 kts 65°
2026-04-26 17:32 59.73133 24.92098 40834 ft 474 kts 65°
2026-04-26 17:33 59.75521 25.04288 40848 ft 474 kts 65°
2026-04-26 17:34 59.79085 25.22625 40823 ft 475 kts 65°
2026-04-26 17:34 59.81447 25.34873 40822 ft 475 kts 66°
2026-04-26 17:35 59.83801 25.47157 40821 ft 475 kts 66°
2026-04-26 17:35 59.86141 25.59443 40814 ft 475 kts 66°
2026-04-26 17:36 59.88458 25.71686 40812 ft 475 kts 66°
2026-04-26 17:36 59.90778 25.84020 40815 ft 475 kts 66°
2026-04-26 17:37 59.93086 25.96361 40824 ft 475 kts 66°
2026-04-26 17:37 59.95153 26.08924 40806 ft 479 kts 72°
2026-04-26 17:38 59.97294 26.28437 40804 ft 480 kts 74°
2026-04-26 17:38 59.98712 26.41450 40796 ft 479 kts 74°
2026-04-26 17:39 60.00169 26.54461 40786 ft 479 kts 75°
2026-04-26 17:39 60.01614 26.67388 40773 ft 479 kts 75°
2026-04-26 17:40 60.02819 26.78291 40786 ft 479 kts 75°
2026-04-26 17:40 60.04476 26.93437 40773 ft 480 kts 75°
2026-04-26 17:41 60.05818 27.06541 40766 ft 481 kts 78°
2026-04-26 17:41 60.06957 27.19744 40760 ft 481 kts 76°
2026-04-26 17:42 60.08071 27.32973 40750 ft 481 kts 77°
2026-04-26 17:42 60.09197 27.46170 40753 ft 481 kts 76°
2026-04-26 17:43 60.10324 27.59382 40744 ft 481 kts 77°
2026-04-26 17:43 60.11435 27.72618 40730 ft 481 kts 78°
2026-04-26 17:44 60.12532 27.85847 40737 ft 481 kts 80°
2026-04-26 17:44 60.13627 27.99090 40723 ft 481 kts 77°
2026-04-26 17:45 60.14696 28.12241 40718 ft 481 kts 79°
2026-04-26 17:45 60.15755 28.25524 40713 ft 481 kts 79°
2026-04-26 17:46 60.16808 28.38818 40695 ft 481 kts 79°
2026-04-26 17:46 60.17850 28.52089 40698 ft 481 kts 76°
2026-04-26 17:47 60.18670 28.58581 40621 ft 478 kts 65°
2026-04-26 17:47 60.19101 28.60658 40670 ft 475 kts 63°
2026-04-26 17:47 60.21990 28.69920 40684 ft 468 kts 45°
2026-04-26 17:47 60.24251 28.74597 40665 ft 467 kts 43°
2026-04-26 17:48 60.28963 28.83615 40683 ft 467 kts 43°
2026-04-26 17:48 60.31456 28.87663 40655 ft 466 kts 32°
2026-04-26 17:48 60.34222 28.91040 40674 ft 464 kts 28°
2026-04-26 17:49 60.39847 28.97481 40671 ft 465 kts 27°
2026-04-26 17:49 60.45479 29.03944 40672 ft 466 kts 27°
2026-04-26 17:50 60.51108 29.10536 40662 ft 466 kts 28°
2026-04-26 17:50 60.56713 29.17186 40660 ft 467 kts 29°
2026-04-26 17:51 60.62289 29.23838 40669 ft 467 kts 30°
2026-04-26 17:51 60.67895 29.30561 40661 ft 467 kts 29°
2026-04-26 17:52 60.73518 29.37325 40661 ft 468 kts 28°
2026-04-26 17:52 60.79128 29.44103 40664 ft 468 kts 28°
2026-04-26 17:53 60.84746 29.50907 40655 ft 469 kts 29°
2026-04-26 17:54 60.93163 29.61165 40672 ft 469 kts 28°
2026-04-26 17:54 60.98744 29.67997 40653 ft 470 kts 29°
2026-04-26 17:55 61.04354 29.74894 40661 ft 469 kts 30°
2026-04-26 17:55 61.09964 29.81818 40666 ft 470 kts 29°
2026-04-26 17:56 61.15576 29.88782 40668 ft 470 kts 29°
2026-04-26 17:57 61.26812 30.02809 40661 ft 471 kts 30°
2026-04-26 17:57 61.32425 30.09857 40656 ft 471 kts 30°
2026-04-26 17:58 61.43616 30.23997 40663 ft 472 kts 30°
2026-04-26 17:59 61.52025 30.34712 40666 ft 472 kts 30°
2026-04-26 17:59 61.57633 30.41888 40668 ft 472 kts 30°
2026-04-26 18:00 61.62290 30.47875 40669 ft 472 kts 31°
2026-04-26 18:00 61.67903 30.55121 40657 ft 473 kts 30°
2026-04-26 18:01 61.73523 30.62400 40661 ft 473 kts 31°
2026-04-26 18:01 61.79130 30.69699 40667 ft 473 kts 30°
2026-04-26 18:02 61.83792 30.75792 40662 ft 474 kts 30°
2026-04-26 18:02 61.90316 30.84346 40659 ft 475 kts 31°
2026-04-26 18:03 61.95930 30.91748 40666 ft 475 kts 31°
2026-04-26 18:03 62.01552 30.99194 40657 ft 475 kts 31°
2026-04-26 18:04 62.07167 31.06664 40665 ft 475 kts 31°
2026-04-26 18:05 62.15584 31.17924 40661 ft 476 kts 32°
2026-04-26 18:05 62.21201 31.25484 40666 ft 476 kts 32°
2026-04-26 18:06 62.26781 31.33024 40664 ft 477 kts 31°
2026-04-26 18:06 62.32352 31.40767 40665 ft 476 kts 32°
2026-04-26 18:07 62.37954 31.48382 40675 ft 476 kts 31°
2026-04-26 18:07 62.43572 31.55938 40671 ft 476 kts 31°
2026-04-26 18:08 62.49171 31.63607 40669 ft 476 kts 32°
2026-04-26 18:08 62.54757 31.71338 40676 ft 476 kts 31°
2026-04-26 18:09 62.60351 31.79103 40677 ft 476 kts 32°
2026-04-26 18:09 62.65902 31.86840 40678 ft 477 kts 32°
2026-04-26 18:10 62.71568 31.94359 40665 ft 476 kts 23°
2026-04-26 18:10 62.77928 31.98091 40674 ft 474 kts
2026-04-26 18:11 62.84513 31.97920 40694 ft 474 kts 357°
2026-04-26 18:11 62.91116 31.97426 40461 ft 478 kts 358°
2026-04-26 18:11 62.94452 31.97233 40242 ft 479 kts 358°
2026-04-26 18:12 62.97787 31.97067 40008 ft 477 kts 358°
2026-04-26 18:12 63.01095 31.96918 39794 ft 475 kts 358°
2026-04-26 18:12 63.04380 31.96775 39742 ft 471 kts 358°
2026-04-26 18:13 63.10954 31.96484 39715 ft 472 kts 358°
2026-04-26 18:13 63.17512 31.96184 39703 ft 470 kts 358°
2026-04-26 18:14 63.24005 31.95884 39707 ft 469 kts 358°
2026-04-26 18:14 63.30521 31.95583 39736 ft 468 kts 358°
2026-04-26 18:15 63.37027 31.95568 39727 ft 467 kts
2026-04-26 18:15 63.43531 31.95902 39731 ft 467 kts
2026-04-26 18:16 63.50035 31.96244 39737 ft 467 kts
2026-04-26 18:16 63.59803 31.96744 39736 ft 468 kts
2026-04-26 18:17 63.66319 31.97075 39742 ft 469 kts
2026-04-26 18:17 63.72810 31.97409 39737 ft 470 kts
2026-04-26 18:18 63.79358 31.97746 39753 ft 471 kts
2026-04-26 18:18 63.85922 31.98085 39751 ft 472 kts
2026-04-26 18:19 63.92494 31.98425 39754 ft 473 kts
2026-04-26 18:19 63.99073 31.98768 39759 ft 473 kts
2026-04-26 18:20 64.05670 31.99113 39761 ft 474 kts
2026-04-26 18:20 64.11155 31.99403 39760 ft 474 kts
2026-04-26 18:21 64.18821 31.99810 39765 ft 474 kts
2026-04-26 18:21 64.25415 32.00161 39769 ft 474 kts
2026-04-26 18:22 64.32008 32.00512 39773 ft 474 kts
2026-04-26 18:22 64.38597 32.00865 39776 ft 473 kts
2026-04-26 18:23 64.45185 32.01219 39778 ft 473 kts
2026-04-26 18:23 64.51763 32.01577 39783 ft 473 kts
2026-04-26 18:24 64.58296 32.01932 39777 ft 472 kts
2026-04-26 18:24 64.64859 32.02292 39779 ft 471 kts
2026-04-26 18:25 64.71426 32.02652 39785 ft 471 kts
2026-04-26 18:25 64.77984 32.03013 39784 ft 471 kts
2026-04-26 18:26 64.84548 32.03379 39795 ft 471 kts
2026-04-26 18:26 64.91074 32.03743 39794 ft 471 kts
2026-04-26 18:27 64.97637 32.04109 39797 ft 472 kts
2026-04-26 18:27 65.04196 32.04475 39797 ft 472 kts
2026-04-26 18:28 65.10762 32.04843 39812 ft 471 kts
2026-04-26 18:28 65.17328 32.05214 39800 ft 472 kts
2026-04-26 18:29 65.23893 32.05586 39807 ft 472 kts
2026-04-26 18:29 65.30451 32.05960 39808 ft 472 kts
2026-04-26 18:30 65.37014 32.06336 39810 ft 472 kts
2026-04-26 18:30 65.43581 32.06714 39816 ft 472 kts
2026-04-26 18:31 65.50102 32.07092 39807 ft 472 kts
2026-04-26 18:31 65.56676 32.07470 39812 ft 472 kts
2026-04-26 18:32 65.63247 32.07782 39814 ft 472 kts
2026-04-26 18:32 65.69822 32.08071 39823 ft 472 kts
2026-04-26 18:33 65.76395 32.08368 39815 ft 472 kts
2026-04-26 18:33 65.82967 32.08674 39818 ft 472 kts
2026-04-26 18:34 65.89531 32.08981 39813 ft 472 kts
2026-04-26 18:34 65.96050 32.09289 39823 ft 472 kts
2026-04-26 18:35 66.02614 32.09599 39821 ft 472 kts
2026-04-26 18:35 66.09180 32.09912 39817 ft 472 kts
2026-04-26 18:36 66.15761 32.10226 39820 ft 472 kts
2026-04-26 18:36 66.22343 32.10543 39821 ft 472 kts
2026-04-26 18:37 66.28925 32.10861 39820 ft 473 kts
2026-04-26 18:37 66.35504 32.11180 39823 ft 473 kts
2026-04-26 18:38 66.42022 32.12329 39809 ft 473 kts 11°
2026-04-26 18:38 66.48422 32.16228 39820 ft 473 kts 14°
2026-04-26 18:39 66.54801 32.20381 39819 ft 473 kts 14°
2026-04-26 18:39 66.61192 32.24416 39817 ft 474 kts 13°
2026-04-26 18:40 66.67602 32.28394 39817 ft 474 kts 13°
2026-04-26 18:40 66.73968 32.32355 39818 ft 474 kts 13°
2026-04-26 18:41 66.80419 32.36399 39122 ft 482 kts 13°
2026-04-26 18:41 66.83672 32.38448 38493 ft 480 kts 13°
2026-04-26 18:41 66.86920 32.40500 37646 ft 480 kts 13°
2026-04-26 18:42 66.90146 32.42543 36901 ft 477 kts 13°
2026-04-26 18:42 66.93355 32.44576 36203 ft 474 kts 13°
2026-04-26 18:42 66.96552 32.46608 35453 ft 473 kts 13°
2026-04-26 18:42 66.99746 32.48642 34605 ft 474 kts 13°
2026-04-26 18:43 67.02946 32.50684 33771 ft 474 kts 13°
2026-04-26 18:43 67.06137 32.52728 33073 ft 468 kts 13°
2026-04-26 18:43 67.09278 32.54746 32424 ft 462 kts 13°
2026-04-26 18:43 67.12377 32.56742 31818 ft 456 kts 12°
2026-04-26 18:44 67.15448 32.58724 31243 ft 457 kts 13°
2026-04-26 18:44 67.18562 32.60736 30670 ft 465 kts 13°
2026-04-26 18:44 67.21708 32.62774 30086 ft 466 kts 13°
2026-04-26 18:44 67.24836 32.64811 29400 ft 461 kts 13°
2026-04-26 18:45 67.27913 32.66821 28735 ft 451 kts 13°
2026-04-26 18:45 67.29918 32.68134 28350 ft 444 kts 13°
2026-04-26 18:45 67.32876 32.70074 27765 ft 434 kts 13°
2026-04-26 18:45 67.36697 32.72585 27017 ft 422 kts 13°
2026-04-26 18:46 67.39513 32.74439 26466 ft 414 kts 13°
2026-04-26 18:46 67.42281 32.76267 25906 ft 407 kts 13°
2026-04-26 18:46 67.45010 32.77939 25368 ft 400 kts
2026-04-26 18:46 67.46857 32.78629 25103 ft 393 kts
2026-04-26 18:47 67.49518 32.79729 24808 ft 382 kts 11°
2026-04-26 18:47 67.51917 32.82273 24803 ft 367 kts 32°
2026-04-26 18:47 67.53746 32.86722 24788 ft 356 kts 53°
2026-04-26 18:47 67.54802 32.92517 24805 ft 356 kts 75°
2026-04-26 18:48 67.54980 32.98959 24825 ft 362 kts 96°
2026-04-26 18:48 67.54249 33.05284 24805 ft 367 kts 118°
2026-04-26 18:48 67.52692 33.10547 24810 ft 368 kts 139°
2026-04-26 18:48 67.50525 33.14031 24789 ft 368 kts 160°
2026-04-26 18:49 67.48070 33.15273 24801 ft 364 kts 181°
2026-04-26 18:49 67.45605 33.14166 24800 ft 359 kts 203°
2026-04-26 18:49 67.43487 33.10856 24797 ft 354 kts 224°
2026-04-26 18:49 67.41996 33.05862 24801 ft 349 kts 245°
2026-04-26 18:50 67.41293 32.99872 24802 ft 345 kts 265°
2026-04-26 18:50 67.41437 32.93697 24802 ft 343 kts 285°
2026-04-26 18:50 67.42387 32.88060 24803 ft 341 kts 305°
2026-04-26 18:50 67.44031 32.83614 24804 ft 342 kts 324°
2026-04-26 18:51 67.46142 32.80809 24806 ft 343 kts 341°
2026-04-26 18:51 67.48502 32.79828 24814 ft 345 kts 355°
2026-04-26 18:51 67.50913 32.79557 24452 ft 353 kts 357°
2026-04-26 18:51 67.53396 32.79434 23900 ft 357 kts 358°
2026-04-26 18:52 67.55881 32.79343 23370 ft 356 kts 358°
2026-04-26 18:52 67.58348 32.79237 22808 ft 353 kts 358°
2026-04-26 18:52 67.60792 32.79106 22334 ft 349 kts 357°
2026-04-26 18:52 67.63202 32.78956 21865 ft 344 kts 357°
2026-04-26 18:53 67.65556 32.78795 21424 ft 340 kts 357°
2026-04-26 18:53 67.67911 32.78625 20975 ft 337 kts 357°
2026-04-26 18:53 67.70243 32.78452 20529 ft 333 kts 356°
2026-04-26 18:53 67.72549 32.78279 20084 ft 330 kts 356°
2026-04-26 18:54 67.74839 32.78105 19642 ft 327 kts 356°
2026-04-26 18:54 67.77113 32.77932 19202 ft 325 kts 356°
2026-04-26 18:54 67.79365 32.77760 18774 ft 323 kts 356°
2026-04-26 18:54 67.81605 32.77589 18336 ft 321 kts 356°
2026-04-26 18:55 67.83834 32.77418 17876 ft 319 kts 356°
2026-04-26 18:55 67.86042 32.77248 17437 ft 315 kts 356°
2026-04-26 18:55 67.88219 32.77081 17013 ft 311 kts 356°
2026-04-26 18:55 67.90373 32.76915 16599 ft 308 kts 356°
2026-04-26 18:56 67.92472 32.76753 16194 ft 304 kts 356°
2026-04-26 18:56 67.94575 32.76590 15775 ft 302 kts 356°
2026-04-26 18:56 67.96664 32.76429 15364 ft 299 kts 356°
2026-04-26 18:56 67.98736 32.76277 14988 ft 296 kts 357°
2026-04-26 18:57 68.00763 32.76219 14724 ft 289 kts 358°
2026-04-26 18:57 68.02121 32.76204 14473 ft 288 kts 358°
2026-04-26 18:57 68.04767 32.76184 13935 ft 287 kts 358°
2026-04-26 18:57 68.06757 32.76167 13513 ft 286 kts 358°
2026-04-26 18:58 68.08743 32.76148 13082 ft 284 kts 358°
2026-04-26 18:58 68.10711 32.76127 12685 ft 281 kts 358°
2026-04-26 18:58 68.12662 32.76103 12286 ft 279 kts 358°
2026-04-26 18:58 68.14604 32.76079 11889 ft 277 kts 358°
2026-04-26 18:59 68.16531 32.76054 11486 ft 276 kts 358°
2026-04-26 18:59 68.18445 32.76028 11082 ft 275 kts 358°
2026-04-26 18:59 68.20353 32.76003 10695 ft 273 kts 358°
2026-04-26 18:59 68.22225 32.75977 10299 ft 273 kts 358°
2026-04-26 19:00 68.24096 32.75953 10150 ft 263 kts 358°
2026-04-26 19:00 68.25909 32.75928 10014 ft 260 kts 358°
2026-04-26 19:00 68.27725 32.75903 9905 ft 262 kts 358°
2026-04-26 19:00 68.29565 32.75876 9745 ft 267 kts 358°
2026-04-26 19:01 68.31452 32.75848 9378 ft 274 kts 358°
2026-04-26 19:01 68.33344 32.75823 9042 ft 270 kts 358°
2026-04-26 19:01 68.35205 32.75799 8721 ft 265 kts 358°
2026-04-26 19:01 68.37031 32.75775 8407 ft 261 kts 358°
2026-04-26 19:02 68.38838 32.75749 8079 ft 258 kts 358°
2026-04-26 19:02 68.40635 32.75724 7755 ft 257 kts 358°
2026-04-26 19:02 68.42415 32.75702 7439 ft 255 kts 359°
2026-04-26 19:02 68.43589 32.75774 7218 ft 255 kts
2026-04-26 19:03 68.45951 32.76049 6786 ft 253 kts
2026-04-26 19:03 68.47707 32.76255 6486 ft 252 kts
2026-04-26 19:03 68.49458 32.76452 6160 ft 252 kts
2026-04-26 19:03 68.51205 32.76642 5828 ft 251 kts
2026-04-26 19:04 68.52949 32.76929 5470 ft 251 kts
2026-04-26 19:04 68.54687 32.77361 5094 ft 251 kts
2026-04-26 19:04 68.56427 32.77805 4729 ft 251 kts
2026-04-26 19:04 68.58101 32.79144 4353 ft 255 kts 29°
2026-04-26 19:05 68.60381 32.86067 3620 ft 236 kts 53°
2026-04-26 19:05 68.61241 32.89720 3326 ft 220 kts 53°
2026-04-26 19:05 68.62035 32.93118 3101 ft 204 kts 52°
2026-04-26 19:06 68.62780 32.96259 2885 ft 188 kts 52°
2026-04-26 19:06 68.63606 32.98749 2665 ft 165 kts 21°
2026-04-26 19:06 68.64630 32.99145 2535 ft 139 kts 350°
2026-04-26 19:06 68.65475 32.98319 2356 ft 121 kts 326°
2026-04-26 19:07 68.66164 32.97059 2291 ft 118 kts 328°
2026-04-26 19:07 68.66853 32.95838 2228 ft 118 kts 327°
2026-04-26 19:07 68.67533 32.94616 2180 ft 115 kts 327°
2026-04-26 19:07 68.68206 32.93399 2176 ft 116 kts 327°
2026-04-26 19:08 68.68876 32.92179 2206 ft 115 kts 327°
2026-04-26 19:08 68.69554 32.90987 2224 ft 118 kts 328°
2026-04-26 19:08 68.70237 32.89798 2175 ft 117 kts 328°
2026-04-26 19:08 68.70935 32.88575 2054 ft 121 kts 328°
2026-04-26 19:09 68.71640 32.87305 1763 ft 120 kts 326°
2026-04-26 19:09 68.72324 32.86084 1505 ft 114 kts 328°
2026-04-26 19:09 68.72990 32.84912 1336 ft 115 kts 328°
2026-04-26 19:09 68.73675 32.83667 1226 ft 121 kts 326°
2026-04-26 19:10 68.74377 32.82289 1068 ft 127 kts 324°
2026-04-26 19:10 68.75101 32.80911 880 ft 126 kts 328°
2026-04-26 19:10 68.75839 32.79591 679 ft 125 kts 325°
2026-04-26 19:10 68.76557 32.78243 468 ft 126 kts 323°
2026-04-26 19:11 68.77267 32.76873 300 ft 122 kts 323°
2026-04-26 19:11 68.77904 32.75691 273 ft 94 kts 326°
2026-04-26 19:11 68.78225 32.75112 273 ft 29 kts 326°
2026-04-26 19:11 68.78317 32.75167 276 ft 12 kts 52°
2026-04-26 19:12 68.78337 32.75239 274 ft 0 kts 54°
2026-04-26 19:12 68.78339 32.75246 274 ft 1 kts 54°
2026-04-26 19:12 68.78349 32.75289 277 ft 4 kts 58°
2026-04-26 19:13 68.78367 32.75369 274 ft 5 kts 56°
2026-04-26 19:13 68.78388 32.75454 276 ft 5 kts 56°
2026-04-26 19:13 68.78393 32.75543 274 ft 5 kts 129°
2026-04-26 19:13 68.78360 32.75557 279 ft 0 kts 174°
2026-04-26 19:14 68.78360 32.75558 274 ft 0 kts 173°
2026-04-26 19:14 68.78355 32.75571 274 ft 3 kts 146°
2026-04-26 19:14 68.78346 32.75588 274 ft 0 kts 145°
2026-04-26 19:21 68.78346 32.75589 274 ft 0 kts 145°
2026-04-26 19:26 68.78353 32.75575 274 ft 0 kts 145°
2026-04-26 19:27 68.78364 32.75553 274 ft 0 kts 145°